PBO Station Position Time Series. Reference Frame : NAM14
Format Version,1.1.1
4-character ID,PMKZ
Station name,PMKZ_G61
Begin Date, 2020-11-22
End Date, 2023-06-26
Release Date, 2023-06-27
Reference position, 61.2836698541 North Latitude, -149.9231706642 East Longitude, 49.74618 meters elevation,
Date, North (mm), East (mm), Vertical (mm), North Std. Deviation (mm), East Std. Deviation (mm),              Vertical Std. Deviation (mm), Quality,
2020-11-22,0.00, 0.00, 0.00, 3.87, 3.04, 10.86, suppf,
2020-11-23,3.80, -0.95, 12.78, 3.74, 2.87, 10.60, suppf,
2020-11-24,1.74, -0.39, 14.28, 3.71, 2.73, 10.43, suppf,
2020-11-25,3.14, 0.34, 9.62, 3.85, 3.05, 10.97, suppf,
2020-11-26,3.28, 0.86, 17.91, 3.70, 2.85, 10.48, suppf,
2020-11-27,5.07, -0.28, 12.59, 3.86, 3.15, 10.97, suppf,
2020-11-28,5.88, -0.60, 15.28, 3.83, 2.90, 10.62, suppf,
2020-11-29,4.17, -0.85, 14.00, 3.88, 2.99, 10.90, suppf,
2020-11-30,2.61, -0.35, 10.13, 3.89, 3.08, 11.02, suppf,
2020-12-01,2.39, 1.56, 13.90, 3.72, 2.83, 10.59, suppf,
2020-12-02,1.05, -2.55, 4.85, 3.67, 2.76, 10.34, suppf,
2020-12-03,1.28, -0.99, -3.75, 3.71, 2.86, 10.42, suppf,
2020-12-04,3.03, -2.06, -14.36, 3.60, 2.69, 10.14, suppf,
2020-12-05,3.88, -2.10, -11.89, 3.61, 2.74, 10.24, suppf,
2020-12-06,3.86, 0.32, -4.51, 3.66, 2.80, 10.42, suppf,
2020-12-07,3.62, 0.23, 0.52, 3.79, 3.06, 10.86, suppf,
2020-12-08,4.67, -1.69, -2.40, 3.85, 3.15, 11.03, suppf,
2020-12-09,3.46, -0.16, -3.93, 3.81, 3.02, 10.68, suppf,
2020-12-10,3.09, -0.96, -5.90, 3.65, 2.72, 10.23, suppf,
2020-12-11,2.52, -0.83, -3.82, 3.75, 2.92, 10.62, suppf,
2020-12-12,3.00, 0.63, -5.24, 3.61, 2.71, 10.24, suppf,
2020-12-13,2.47, 0.41, 1.70, 3.96, 3.24, 11.30, suppf,
2020-12-14,3.58, 0.92, -7.45, 3.89, 3.15, 11.08, suppf,
2020-12-15,0.94, -1.13, -3.52, 3.69, 2.89, 10.48, suppf,
2020-12-16,0.28, -0.38, -7.68, 3.78, 3.00, 10.80, suppf,
2020-12-17,0.34, -1.58, -17.24, 3.86, 3.12, 11.01, suppf,
2020-12-18,2.30, -0.73, -16.43, 3.64, 2.79, 10.43, suppf,
2020-12-19,0.06, 0.59, -16.42, 3.91, 3.20, 11.19, suppf,
2020-12-20,0.62, 1.16, -13.38, 3.66, 2.79, 10.35, suppf,
2020-12-21,-0.68, -0.07, -19.54, 3.90, 3.21, 11.08, suppf,
2020-12-22,0.05, -0.71, -5.52, 3.82, 2.87, 10.71, suppf,
2020-12-23,0.97, -1.89, 5.66, 3.85, 3.00, 10.99, suppf,
2020-12-24,1.59, -0.18, 1.09, 3.80, 2.99, 11.01, suppf,
2020-12-25,0.44, -0.98, -2.31, 3.80, 2.97, 10.75, suppf,
2020-12-26,1.57, 0.87, 0.57, 3.74, 2.91, 10.50, suppf,
2020-12-27,1.69, -0.99, -3.76, 3.86, 3.18, 11.04, suppf,
2020-12-28,-0.49, 0.94, 1.02, 3.88, 3.15, 11.00, suppf,
2020-12-29,-0.16, -0.23, 1.11, 3.85, 3.14, 10.97, suppf,
2020-12-30,1.92, -0.19, -0.69, 3.63, 2.81, 10.36, suppf,
2020-12-31,1.20, 0.78, -1.69, 3.61, 2.72, 10.17, suppf,
2021-01-01,1.93, 0.52, 3.20, 3.82, 3.10, 10.87, suppf,
2021-01-02,2.62, 0.71, 5.17, 3.82, 3.10, 10.89, suppf,
2021-01-03,3.25, -1.19, 14.29, 3.70, 2.81, 10.37, suppf,
2021-01-04,0.30, 0.59, 10.30, 3.67, 2.85, 10.34, suppf,
2021-01-05,-0.04, 0.15, 13.00, 3.69, 2.98, 10.64, suppf,
2021-01-06,-0.70, -0.28, 14.26, 3.74, 2.86, 10.43, suppf,
2021-01-07,0.50, 1.61, 7.77, 3.63, 2.71, 10.25, suppf,
2021-01-08,1.78, -0.82, 5.37, 3.77, 2.98, 10.75, suppf,
2021-01-09,3.86, -1.33, -0.85, 3.74, 2.98, 10.66, suppf,
2021-01-10,-0.03, -0.87, 11.35, 3.72, 2.88, 10.43, suppf,
2021-01-11,0.03, -2.29, 18.94, 3.88, 3.09, 10.97, suppf,
2021-01-12,-1.56, -1.89, 12.74, 3.97, 3.29, 11.29, suppf,
2021-01-13,-1.24, -2.32, 9.76, 3.86, 3.17, 10.97, suppf,
2021-01-14,0.66, -1.45, -1.69, 3.85, 3.12, 10.93, suppf,
2021-01-15,1.30, -1.18, 2.23, 3.84, 3.10, 10.92, suppf,
2021-01-16,0.24, -2.52, 0.28, 3.68, 2.87, 10.49, suppf,
2021-01-17,-0.38, 0.23, 7.40, 3.65, 2.78, 10.42, suppf,
2021-01-18,-1.47, -0.11, 3.47, 3.89, 3.17, 11.13, suppf,
2021-01-19,1.45, -1.41, 12.45, 3.76, 2.89, 10.65, suppf,
2021-01-20,0.58, -0.64, -0.65, 3.91, 3.14, 11.24, suppf,
2021-01-21,0.29, -0.78, -5.76, 3.96, 3.23, 11.24, suppf,
2021-01-22,0.84, -1.20, -0.28, 3.87, 3.17, 11.12, suppf,
2021-01-23,1.47, -0.74, -1.32, 3.89, 3.19, 11.10, suppf,
2021-01-24,1.43, -1.28, 3.44, 3.79, 2.97, 10.67, suppf,
2021-01-25,1.61, -1.01, 0.93, 3.79, 3.01, 10.76, suppf,
2021-01-26,2.63, -0.85, -3.49, 3.77, 3.00, 10.62, suppf,
2021-01-27,2.45, 0.59, -1.54, 3.91, 3.26, 11.10, suppf,
2021-01-28,1.49, -1.17, -5.26, 3.89, 3.16, 11.05, suppf,
2021-01-29,1.32, -1.09, -6.80, 3.91, 3.25, 11.15, suppf,
2021-01-30,2.46, -0.49, -6.01, 3.81, 2.95, 10.58, suppf,
2021-01-31,2.36, -0.36, -8.18, 2.47, 1.55, 7.96, suppf,
2021-02-01,3.77, -0.72, -12.81, 2.45, 1.56, 7.92, suppf,
2021-02-02,2.33, -0.59, -6.69, 2.46, 1.56, 7.88, suppf,
2021-02-03,4.79, -1.17, -16.26, 2.47, 1.56, 7.93, suppf,
2021-02-04,3.53, 0.71, -21.23, 2.51, 1.60, 8.03, suppf,
2021-02-05,5.20, 0.60, -18.75, 2.52, 1.60, 8.08, suppf,
2021-02-06,2.68, -0.03, -25.70, 2.46, 1.56, 7.93, suppf,
2021-02-07,3.83, -0.83, -24.09, 2.48, 1.58, 7.97, suppf,
2021-02-08,5.08, -2.19, -11.78, 2.43, 1.54, 7.83, suppf,
2021-02-09,5.09, -1.56, -12.24, 2.46, 1.55, 7.94, suppf,
2021-02-10,3.89, -0.71, -8.74, 2.47, 1.55, 7.94, suppf,
2021-02-11,4.29, 0.29, -4.27, 2.46, 1.56, 7.95, suppf,
2021-02-12,2.84, -0.61, -6.17, 2.47, 1.56, 8.00, suppf,
2021-02-13,4.50, -0.24, -3.26, 2.46, 1.57, 8.01, suppf,
2021-02-14,4.23, -0.50, -1.79, 2.45, 1.55, 7.91, suppf,
2021-02-15,4.08, -1.26, -0.80, 2.46, 1.55, 7.97, suppf,
2021-02-16,4.10, -1.29, -5.58, 2.48, 1.57, 7.97, suppf,
2021-02-17,4.49, 0.44, -6.61, 2.45, 1.55, 7.91, suppf,
2021-02-18,5.63, -1.42, -1.71, 2.48, 1.58, 8.26, suppf,
2021-02-19,4.97, -2.62, 6.21, 2.49, 1.58, 8.29, suppf,
2021-02-20,6.89, -2.57, 6.99, 2.46, 1.55, 7.90, suppf,
2021-02-21,3.69, -1.02, 17.33, 2.47, 1.55, 7.92, suppf,
2021-02-22,2.61, -0.82, 9.94, 2.46, 1.54, 7.92, suppf,
2021-02-23,5.22, -1.42, 0.23, 2.45, 1.55, 7.90, suppf,
2021-02-24,3.54, 0.13, 7.04, 2.45, 1.54, 7.89, suppf,
2021-02-25,3.47, -0.82, 12.60, 2.55, 1.60, 8.13, suppf,
2021-02-26,3.97, -0.90, 7.38, 2.51, 1.59, 8.03, suppf,
2021-02-27,2.89, 0.36, 8.08, 2.66, 1.63, 8.24, suppf,
2021-02-28,3.01, -0.53, 8.18, 2.59, 1.59, 8.15, suppf,
2021-03-01,3.85, -2.04, 7.30, 2.60, 1.61, 8.14, suppf,
2021-03-02,2.82, -1.94, 1.77, 2.48, 1.57, 7.99, suppf,
2021-03-03,2.98, -2.74, 5.41, 2.50, 1.57, 8.01, suppf,
2021-03-04,3.01, -1.65, -2.51, 2.47, 1.56, 7.99, suppf,
2021-03-05,3.71, -4.06, 5.09, 2.52, 1.63, 8.44, suppf,
2021-03-06,2.12, -3.20, 8.22, 2.49, 1.61, 8.30, suppf,
2021-03-07,3.37, -3.31, 2.57, 2.46, 1.58, 8.27, suppf,
2021-03-08,2.99, -3.61, -5.62, 2.53, 1.65, 8.43, suppf,
2021-03-09,4.48, -3.56, -2.88, 2.50, 1.58, 8.15, suppf,
2021-03-10,2.70, -2.66, -1.37, 2.48, 1.57, 8.07, suppf,
2021-03-11,2.36, -1.13, 1.36, 2.48, 1.58, 8.07, suppf,
2021-03-12,6.88, -2.62, 2.30, 2.51, 1.62, 8.09, suppf,
2021-03-13,3.65, -2.34, -6.55, 2.48, 1.58, 8.01, suppf,
2021-03-14,4.62, -3.13, -5.33, 2.51, 1.58, 8.11, suppf,
2021-03-15,4.52, -2.36, 3.71, 2.49, 1.57, 8.07, suppf,
2021-03-16,1.82, -1.72, -2.84, 2.44, 1.55, 7.91, suppf,
2021-03-17,3.80, -2.78, -1.34, 2.46, 1.56, 7.94, suppf,
2021-03-18,4.64, -3.18, 7.32, 2.56, 1.60, 8.07, suppf,
2021-03-19,3.96, -3.82, -1.60, 2.57, 1.60, 8.08, suppf,
2021-03-20,2.71, -2.05, 2.93, 2.60, 1.66, 8.27, suppf,
2021-03-21,2.08, -1.09, 3.71, 2.47, 1.56, 8.03, suppf,
2021-03-22,2.09, -1.59, -7.09, 2.49, 1.56, 8.03, suppf,
2021-03-23,4.62, -2.07, -3.10, 2.47, 1.56, 7.97, suppf,
2021-03-24,4.53, -2.08, -1.82, 2.46, 1.57, 7.98, suppf,
2021-03-25,5.28, -2.33, -8.39, 2.47, 1.56, 8.01, suppf,
2021-03-26,5.67, -2.55, -2.12, 2.50, 1.57, 8.08, suppf,
2021-03-27,3.92, -1.83, -2.18, 2.46, 1.55, 7.97, suppf,
2021-03-28,4.68, -0.99, -2.75, 2.45, 1.55, 7.93, suppf,
2021-03-29,5.19, -0.84, -1.60, 2.46, 1.55, 7.95, suppf,
2021-03-30,4.84, -1.43, -5.54, 2.46, 1.56, 8.00, suppf,
2021-03-31,2.68, -2.78, 3.02, 2.49, 1.57, 8.07, suppf,
2021-04-01,3.75, -2.74, 1.91, 2.47, 1.57, 8.31, suppf,
2021-04-02,2.93, -2.92, -8.00, 2.44, 1.54, 7.88, suppf,
2021-04-03,3.79, -0.92, -5.69, 2.46, 1.55, 7.99, suppf,
2021-04-04,5.02, -2.66, -9.75, 2.46, 1.57, 8.04, suppf,
2021-04-05,4.77, -1.34, -5.53, 2.46, 1.56, 8.03, suppf,
2021-04-06,3.40, -2.66, -5.24, 2.45, 1.54, 7.92, suppf,
2021-04-07,5.07, -1.55, -6.99, 2.45, 1.55, 7.96, suppf,
2021-04-08,4.85, -2.55, -2.85, 2.60, 1.60, 8.24, suppf,
2021-04-09,6.33, -3.20, -6.64, 2.59, 1.59, 8.19, suppf,
2021-04-10,5.68, -2.79, -6.98, 2.45, 1.56, 8.02, suppf,
2021-04-11,6.37, -1.76, -8.49, 2.49, 1.55, 8.16, suppf,
2021-04-12,5.10, -1.48, -10.88, 2.55, 1.62, 8.19, suppf,
2021-04-13,3.27, -0.13, -11.88, 2.62, 1.63, 8.33, suppf,
2021-04-14,3.64, -0.87, -11.33, 2.59, 1.63, 8.31, suppf,
2021-04-15,4.19, -1.22, -13.50, 2.56, 1.62, 8.18, suppf,
2021-04-16,5.53, -0.77, -11.85, 2.56, 1.63, 8.18, suppf,
2021-04-17,5.10, -1.88, -14.36, 2.64, 1.67, 8.35, suppf,
2021-04-18,5.17, -0.02, -7.67, 2.57, 1.65, 8.28, suppf,
2021-04-19,6.37, -0.12, -12.19, 2.73, 1.71, 8.52, suppf,
2021-04-20,8.41, -1.60, -23.55, 2.58, 1.63, 8.28, suppf,
2021-04-21,5.60, -1.75, -13.18, 2.57, 1.64, 8.29, suppf,
2021-04-22,5.42, -0.73, -8.34, 2.64, 1.69, 8.56, suppf,
2021-04-23,7.08, -2.63, -10.75, 2.69, 1.71, 8.60, suppf,
2021-04-24,5.71, -1.62, -12.85, 2.48, 1.58, 8.09, suppf,
2021-04-25,7.64, -2.34, -8.30, 2.50, 1.59, 8.15, suppf,
2021-04-26,7.30, -3.63, -9.00, 2.54, 1.62, 8.24, suppf,
2021-04-27,6.42, -3.81, -8.07, 2.54, 1.63, 8.47, suppf,
2021-04-28,4.94, -1.59, -3.48, 2.51, 1.62, 8.47, suppf,
2021-04-29,2.02, -0.82, -7.70, 2.46, 1.57, 8.02, suppf,
2021-04-30,1.73, 0.53, -15.36, 2.49, 1.58, 8.07, suppf,
2021-05-01,0.72, 2.16, -14.74, 2.49, 1.58, 8.08, suppf,
2021-05-02,0.61, 3.70, -18.00, 2.48, 1.60, 8.11, suppf,
2021-05-03,-0.39, 3.05, -20.19, 2.48, 1.59, 8.13, suppf,
2021-05-04,0.29, 4.77, -7.62, 2.46, 1.60, 8.07, suppf,
2021-05-05,0.04, 4.79, -21.12, 2.49, 1.59, 8.08, suppf,
2021-05-06,0.61, 3.37, -20.44, 2.55, 1.66, 8.29, suppf,
2021-05-07,1.86, 3.22, -20.47, 2.51, 1.61, 8.21, suppf,
2021-05-08,1.18, 2.40, -14.82, 2.57, 1.66, 8.58, suppf,
2021-05-09,2.11, 3.66, -16.59, 2.48, 1.60, 8.10, suppf,
2021-05-10,-0.44, 4.80, -16.61, 2.49, 1.60, 8.11, suppf,
2021-05-11,-0.46, 4.65, -11.14, 2.52, 1.60, 8.14, suppf,
2021-05-12,-2.34, 4.63, -8.87, 2.62, 1.71, 8.61, suppf,
2021-05-13,-0.50, 3.70, -18.31, 2.49, 1.60, 8.03, suppf,
2021-05-14,0.19, 4.39, -24.35, 2.49, 1.60, 8.10, suppf,
2021-05-15,-0.42, 4.37, -17.33, 2.48, 1.60, 8.01, suppf,
2021-05-16,0.57, 4.27, -15.68, 2.47, 1.59, 7.96, suppf,
2021-05-17,0.13, 4.29, -13.91, 2.56, 1.65, 8.29, suppf,
2021-05-18,-0.22, 4.51, -15.26, 2.51, 1.61, 8.13, suppf,
2021-05-19,1.05, 2.83, -12.07, 2.60, 1.69, 8.50, suppf,
2021-05-20,1.34, 6.70, -17.45, 2.81, 1.75, 9.03, suppf,
2021-05-21,-0.13, 3.49, -17.97, 2.68, 1.69, 8.48, suppf,
2021-05-22,0.88, 3.32, -14.11, 2.63, 1.66, 8.39, suppf,
2021-05-23,1.48, 2.31, -19.28, 2.54, 1.64, 8.18, suppf,
2021-05-24,2.73, 3.40, -16.78, 2.53, 1.63, 8.19, suppf,
2021-05-25,1.62, 3.01, -17.33, 2.56, 1.65, 8.27, suppf,
2021-05-26,-2.01, 2.28, -17.71, 2.56, 1.67, 8.27, suppf,
2021-05-27,-2.38, 2.30, -12.92, 2.55, 1.65, 8.20, suppf,
2021-05-28,-1.04, 3.22, -8.22, 2.58, 1.68, 8.45, suppf,
2021-05-29,-0.70, 4.27, -10.49, 2.53, 1.65, 8.15, suppf,
2021-05-30,-0.11, 2.56, -8.79, 2.53, 1.64, 8.17, suppf,
2021-05-31,-0.56, 2.86, -13.76, 2.53, 1.68, 8.18, suppf,
2021-06-01,-1.09, 2.87, -9.32, 2.53, 1.67, 8.17, suppf,
2021-06-02,-1.04, 2.08, -13.69, 2.54, 1.65, 8.13, suppf,
2021-06-03,1.21, 2.50, -7.96, 2.55, 1.68, 8.21, suppf,
2021-06-04,0.04, 2.05, -12.45, 2.52, 1.64, 8.05, suppf,
2021-06-05,0.54, 2.05, -8.65, 2.55, 1.69, 8.19, suppf,
2021-06-06,1.47, 2.06, -11.44, 2.53, 1.67, 8.13, suppf,
2021-06-07,1.61, 3.54, -13.35, 2.54, 1.68, 8.15, suppf,
2021-06-08,-0.26, 1.91, -21.58, 2.55, 1.67, 8.15, suppf,
2021-06-09,1.21, 3.15, -22.36, 2.55, 1.66, 8.13, suppf,
2021-06-10,0.08, 3.68, -9.40, 2.62, 1.73, 8.42, suppf,
2021-06-11,1.19, 1.66, -17.83, 2.65, 1.75, 8.55, suppf,
2021-06-12,-0.47, 3.07, -12.31, 2.62, 1.74, 8.31, suppf,
2021-06-13,1.43, 2.13, -17.92, 2.64, 1.73, 8.48, suppf,
2021-06-14,-2.23, 3.15, -11.87, 2.62, 1.71, 8.44, suppf,
2021-06-15,-0.62, 3.38, -12.52, 2.62, 1.74, 8.59, suppf,
2021-06-16,2.93, 2.61, -15.60, 2.57, 1.71, 8.31, suppf,
2021-06-17,-0.11, 4.02, -23.85, 2.56, 1.67, 8.25, suppf,
2021-06-18,1.75, 2.88, -10.28, 2.54, 1.66, 8.15, suppf,
2021-06-19,1.08, 2.28, -13.33, 2.54, 1.66, 8.14, suppf,
2021-06-20,0.15, 2.80, -13.72, 2.56, 1.66, 8.21, suppf,
2021-06-21,0.87, 2.75, -15.45, 2.61, 1.72, 8.38, suppf,
2021-06-22,1.42, 3.51, -8.52, 2.64, 1.70, 8.42, suppf,
2021-06-23,3.87, 2.67, -14.05, 2.68, 1.69, 8.45, suppf,
2021-06-24,0.28, 4.70, 0.49, 2.68, 1.72, 8.56, suppf,
2021-06-25,-0.98, 3.16, -15.74, 2.69, 1.71, 8.48, suppf,
2021-06-26,-0.71, 3.72, -10.75, 2.67, 1.71, 8.48, suppf,
2021-06-27,3.90, 2.75, -21.90, 2.70, 1.71, 8.54, suppf,
2021-06-28,1.56, 4.37, -21.72, 2.66, 1.72, 8.48, suppf,
2021-06-29,3.00, 1.22, -11.54, 2.63, 1.68, 8.36, suppf,
2021-06-30,1.40, 3.75, -9.60, 2.64, 1.70, 8.43, suppf,
2021-07-01,2.47, 3.96, -9.26, 2.75, 1.70, 8.60, suppf,
2021-07-02,3.13, 2.52, -10.65, 2.86, 1.77, 8.97, suppf,
2021-07-03,5.08, 4.46, -10.78, 2.66, 1.71, 8.50, suppf,
2021-07-04,5.56, 5.68, -14.12, 2.63, 1.69, 8.40, suppf,
2021-07-05,4.70, 1.69, -11.18, 2.63, 1.68, 8.37, suppf,
2021-07-06,0.18, 0.23, -13.94, 2.64, 1.69, 8.36, suppf,
2021-07-07,2.96, 2.87, -13.20, 2.66, 1.70, 8.45, suppf,
2021-07-08,2.47, 1.59, -3.80, 2.66, 1.66, 8.32, suppf,
2021-07-09,1.16, 1.76, -9.62, 2.74, 1.77, 8.74, suppf,
2021-07-10,0.98, 3.54, -4.98, 2.69, 1.76, 8.52, suppf,
2021-07-11,1.46, 4.17, -6.42, 2.66, 1.68, 8.37, suppf,
2021-07-12,1.45, 2.43, -7.86, 2.66, 1.70, 8.42, suppf,
2021-07-13,2.86, 1.67, -3.90, 2.65, 1.70, 8.45, suppf,
2021-07-14,0.43, 2.75, -8.22, 2.66, 1.70, 8.43, suppf,
2021-07-15,0.67, 2.03, -9.71, 2.69, 1.71, 8.55, suppf,
2021-07-16,1.95, 3.27, -8.28, 2.86, 1.87, 9.29, suppf,
2021-07-17,0.84, 2.93, -3.79, 2.69, 1.71, 8.71, suppf,
2021-07-18,0.57, 1.05, -5.13, 2.71, 1.72, 8.73, suppf,
2021-07-19,-0.68, 1.53, 1.99, 2.63, 1.68, 8.41, suppf,
2021-07-20,-1.85, 1.50, -6.45, 2.71, 1.76, 8.66, suppf,
2021-07-21,-2.07, 2.86, -2.32, 2.69, 1.74, 8.54, suppf,
2021-07-22,-2.02, 2.82, -0.88, 2.70, 1.77, 8.72, suppf,
2021-07-23,0.14, 3.67, -4.65, 2.70, 1.74, 8.66, suppf,
2021-07-24,-0.81, 1.21, -1.19, 2.64, 1.69, 8.37, suppf,
2021-07-25,0.03, 1.82, 0.95, 2.67, 1.71, 8.53, suppf,
2021-07-26,-1.35, 1.73, -6.26, 2.68, 1.71, 8.55, suppf,
2021-07-27,-0.49, 0.82, -7.79, 2.70, 1.74, 8.59, suppf,
2021-07-28,-3.21, 3.20, 0.68, 2.66, 1.71, 8.51, suppf,
2021-07-29,1.38, -0.42, 6.10, 2.64, 1.68, 8.43, suppf,
2021-07-30,-0.48, 1.08, -1.01, 2.69, 1.73, 8.62, suppf,
2021-07-31,-0.59, 1.82, 0.78, 2.69, 1.72, 8.59, suppf,
2021-08-01,-0.40, 2.75, 5.11, 2.73, 1.74, 8.78, suppf,
2021-08-02,-0.46, 0.75, 0.03, 2.70, 1.73, 8.59, suppf,
2021-08-03,-0.55, 1.52, 10.84, 2.72, 1.73, 8.74, suppf,
2021-08-04,-1.27, 1.63, 4.31, 2.66, 1.69, 8.50, suppf,
2021-08-05,-0.48, 0.54, 12.13, 2.65, 1.70, 8.46, suppf,
2021-08-06,-1.79, 0.45, 4.30, 2.73, 1.76, 8.86, suppf,
2021-08-07,0.25, 1.99, 13.49, 2.68, 1.71, 8.44, suppf,
2021-08-08,-0.52, 1.71, 15.29, 2.65, 1.69, 8.53, suppf,
2021-08-09,-3.31, 0.13, 15.10, 2.65, 1.69, 8.51, suppf,
2021-08-10,-3.26, 0.95, 5.15, 2.65, 1.68, 8.41, suppf,
2021-08-11,-2.43, 2.12, 3.82, 2.66, 1.68, 8.44, suppf,
2021-08-12,1.39, 1.67, 16.19, 2.67, 1.71, 8.55, suppf,
2021-08-13,-0.42, 0.08, 6.92, 2.70, 1.70, 8.52, suppf,
2021-08-14,-0.63, -0.43, 2.95, 2.64, 1.68, 8.47, suppf,
2021-08-15,-1.94, -0.01, 12.71, 2.64, 1.67, 8.40, suppf,
2021-08-16,2.22, 1.42, 6.35, 2.64, 1.69, 8.44, suppf,
2021-08-17,0.17, 0.76, 10.56, 2.64, 1.68, 8.33, suppf,
2021-08-18,0.44, 0.95, 5.04, 2.64, 1.69, 8.45, suppf,
2021-08-19,-2.01, 2.41, 9.91, 2.79, 1.79, 8.83, suppf,
2021-08-20,1.61, 1.11, -7.27, 2.68, 1.70, 8.58, suppf,
2021-08-21,-2.58, 0.44, 4.22, 2.85, 1.74, 8.77, suppf,
2021-08-22,-0.16, -0.10, 4.22, 2.75, 1.71, 8.61, suppf,
2021-08-23,0.93, 0.28, 2.30, 2.76, 1.72, 8.68, suppf,
2021-08-24,0.19, 0.17, 7.06, 2.70, 1.69, 8.53, suppf,
2021-08-25,1.20, 0.95, 8.92, 2.71, 1.73, 8.67, suppf,
2021-08-26,0.43, 2.21, 10.23, 2.64, 1.67, 8.46, suppf,
2021-08-27,-1.07, 0.06, 18.76, 2.78, 1.79, 8.90, suppf,
2021-08-28,-1.53, 0.06, 14.33, 2.66, 1.68, 8.39, suppf,
2021-08-29,-2.19, 1.07, 7.56, 2.62, 1.68, 8.36, suppf,
2021-08-30,-3.61, 1.27, 11.54, 2.64, 1.68, 8.43, suppf,
2021-08-31,-2.40, -0.31, 12.19, 2.66, 1.68, 8.49, suppf,
2021-09-01,-4.39, 1.79, 12.27, 2.69, 1.70, 8.60, suppf,
2021-09-02,-2.78, 0.35, 11.96, 2.76, 1.69, 8.63, suppf,
2021-09-03,0.17, 1.88, 2.73, 2.77, 1.72, 9.03, suppf,
2021-09-04,-0.57, 0.55, 13.49, 2.73, 1.79, 8.94, suppf,
2021-09-05,0.88, -0.56, 11.01, 2.73, 1.79, 8.66, suppf,
2021-09-06,0.57, -0.36, 15.51, 2.71, 1.70, 8.64, suppf,
2021-09-07,0.74, -0.22, 13.74, 2.64, 1.67, 8.40, suppf,
2021-09-08,-1.17, -0.76, 6.05, 2.68, 1.72, 8.53, suppf,
2021-09-09,-0.68, 0.61, 8.68, 2.63, 1.69, 8.43, suppf,
2021-09-10,-1.73, -0.66, 15.87, 2.64, 1.68, 8.50, suppf,
2021-09-11,-2.88, -0.36, 11.52, 2.64, 1.67, 8.48, suppf,
2021-09-12,-1.54, -0.92, 11.89, 2.65, 1.67, 8.41, suppf,
2021-09-13,-1.77, 1.63, 26.26, 2.71, 1.72, 8.78, suppf,
2021-09-14,-0.71, 0.47, 24.05, 2.66, 1.68, 8.50, suppf,
2021-09-15,-3.59, 1.09, 7.16, 2.65, 1.67, 8.49, suppf,
2021-09-16,-1.11, -0.84, 15.78, 2.64, 1.69, 8.48, suppf,
2021-09-17,-0.18, -0.92, 15.18, 2.61, 1.65, 8.32, suppf,
2021-09-18,-0.20, -0.58, 18.70, 2.61, 1.66, 8.33, suppf,
2021-09-19,0.28, 0.30, 11.12, 2.64, 1.66, 8.44, suppf,
2021-09-20,-1.19, 0.08, 10.65, 2.63, 1.68, 8.51, suppf,
2021-09-21,0.19, 0.05, 12.25, 2.62, 1.67, 8.42, suppf,
2021-09-22,0.30, -0.93, 5.60, 2.63, 1.71, 8.54, suppf,
2021-09-23,-1.65, 1.50, 13.66, 2.64, 1.68, 8.49, suppf,
2021-09-24,-3.89, -1.49, 9.60, 2.84, 1.82, 9.00, suppf,
2021-09-25,-0.91, -0.08, 7.61, 2.69, 1.71, 8.60, suppf,
2021-09-26,-1.16, -0.74, 13.01, 2.61, 1.66, 8.32, suppf,
2021-09-27,0.55, 1.06, 12.90, 2.61, 1.65, 8.34, suppf,
2021-09-28,-0.63, 0.41, 20.66, 2.63, 1.64, 8.36, suppf,
2021-09-29,-0.82, 0.81, 13.16, 2.62, 1.64, 8.28, suppf,
2021-09-30,-1.62, 0.77, 12.79, 2.65, 1.66, 8.40, suppf,
2021-10-01,-2.74, -0.28, 13.86, 2.65, 1.68, 8.36, suppf,
2021-10-02,-0.94, 1.36, 13.96, 2.63, 1.67, 8.33, suppf,
2021-10-03,0.99, 2.01, 12.67, 2.64, 1.68, 8.48, suppf,
2021-10-04,-0.14, 0.66, 6.37, 2.63, 1.66, 8.40, suppf,
2021-10-05,-2.21, 1.51, 8.72, 2.64, 1.66, 8.38, suppf,
2021-10-06,-2.70, 0.01, 14.58, 2.66, 1.69, 8.47, suppf,
2021-10-07,-0.00, -0.59, 10.29, 2.67, 1.72, 8.58, suppf,
2021-10-08,-0.94, 1.13, 16.51, 2.61, 1.66, 8.31, suppf,
2021-10-09,-1.98, 1.09, 23.93, 2.64, 1.66, 8.41, suppf,
2021-10-10,-3.06, 1.20, 14.75, 2.61, 1.65, 8.28, suppf,
2021-10-11,-2.13, 1.48, 17.59, 2.64, 1.67, 8.42, suppf,
2021-10-12,-0.82, -0.50, 13.32, 2.83, 1.91, 9.25, suppf,
2021-10-13,0.31, 1.00, 24.64, 2.62, 1.64, 8.25, suppf,
2021-10-14,-2.27, 0.89, 19.09, 2.61, 1.65, 8.28, suppf,
2021-10-15,-0.61, 0.75, 13.23, 2.61, 1.63, 8.28, suppf,
2021-10-16,-2.82, 0.32, 13.07, 2.62, 1.67, 8.38, suppf,
2021-10-17,0.30, 1.26, 17.28, 2.59, 1.65, 8.26, suppf,
2021-10-18,-0.12, -0.22, 24.08, 2.64, 1.68, 8.49, suppf,
2021-10-19,-2.66, 0.46, 16.35, 2.62, 1.63, 8.25, suppf,
2021-10-20,-3.72, 0.83, 27.72, 2.78, 1.72, 8.60, suppf,
2021-10-21,-2.84, 0.50, 13.58, 2.73, 1.70, 8.49, suppf,
2021-10-22,-0.52, 1.03, 25.09, 2.61, 1.66, 8.31, suppf,
2021-10-23,-0.77, 1.48, 34.12, 2.61, 1.66, 8.38, suppf,
2021-10-24,-3.19, 0.89, 22.57, 2.62, 1.70, 8.55, suppf,
2021-10-25,-1.12, 1.00, 24.12, 2.60, 1.65, 8.27, suppf,
2021-10-26,-2.25, 1.60, 27.86, 2.64, 1.66, 8.44, suppf,
2021-10-27,-4.06, 1.68, 18.20, 2.62, 1.68, 8.54, suppf,
2021-10-28,-0.95, 0.73, 15.04, 2.64, 1.69, 8.59, suppf,
2021-10-29,0.38, 1.71, 15.06, 2.65, 1.70, 8.60, suppf,
2021-10-30,-0.41, 0.61, 18.21, 2.65, 1.68, 8.60, suppf,
2021-10-31,-1.98, 7.08, 16.98, 2.74, 1.73, 8.77, suppf,
2021-11-01,-1.81, 2.03, 18.80, 2.66, 1.69, 8.61, suppf,
2021-11-02,-0.28, 1.51, 18.26, 2.68, 1.71, 8.70, suppf,
2021-11-03,-1.53, 2.01, 13.35, 2.64, 1.69, 8.60, suppf,
2021-11-04,0.39, 0.67, 14.55, 3.23, 2.17, 10.62, suppf,
2021-11-05,-1.22, 1.07, 11.90, 2.66, 1.69, 8.55, suppf,
2021-11-06,-0.80, 1.38, 12.13, 2.63, 1.68, 8.59, suppf,
2021-11-07,-2.68, 0.50, 11.49, 2.63, 1.69, 8.55, suppf,
2021-11-08,-0.06, -0.40, 4.04, 2.65, 1.68, 8.70, suppf,
2021-11-09,-0.08, 2.24, 9.23, 2.61, 1.67, 8.37, suppf,
2021-11-10,-2.23, 0.90, 10.64, 2.59, 1.65, 8.27, suppf,
2021-11-11,0.19, 0.36, -1.88, 2.56, 1.60, 8.03, suppf,
2021-11-12,-2.25, 0.26, -6.07, 2.67, 1.69, 8.50, suppf,
2021-11-13,1.93, 1.33, -7.67, 2.74, 1.70, 8.57, suppf,
2021-11-14,2.71, 0.85, -7.97, 2.74, 1.70, 8.58, suppf,
2021-11-15,0.82, 1.17, -4.27, 2.63, 1.64, 8.23, suppf,
2021-11-16,0.28, 2.38, 5.78, 2.63, 1.63, 8.17, suppf,
2021-11-17,-0.96, 2.62, -5.23, 2.57, 1.62, 8.11, suppf,
2021-11-18,-1.70, 1.77, 4.04, 2.57, 1.61, 8.10, suppf,
2021-11-19,-1.98, 2.93, -0.69, 2.59, 1.62, 8.20, suppf,
2021-11-20,-0.98, 2.59, -4.27, 2.58, 1.63, 8.15, suppf,
2021-11-21,-4.66, 3.36, -0.31, 2.59, 1.63, 8.13, suppf,
2021-11-22,-1.26, 2.19, -4.80, 2.59, 1.62, 8.09, suppf,
2021-11-23,-0.62, 2.17, -9.53, 2.58, 1.62, 8.13, suppf,
2021-11-24,-1.96, 3.64, -9.01, 2.59, 1.63, 8.19, suppf,
2021-11-25,-1.63, 2.68, -5.38, 2.59, 1.63, 8.20, suppf,
2021-11-26,0.39, 2.23, -8.19, 2.60, 1.64, 8.19, suppf,
2021-11-27,-1.83, 3.13, -6.88, 2.57, 1.63, 8.10, suppf,
2021-11-28,-1.64, 3.99, -9.06, 2.60, 1.67, 8.36, suppf,
2021-11-29,-0.18, 3.62, -3.14, 2.58, 1.64, 8.21, suppf,
2021-11-30,-0.01, 4.08, -19.00, 2.59, 1.65, 8.23, suppf,
2021-12-01,-0.78, 3.28, -25.44, 2.64, 1.65, 8.36, suppf,
2021-12-02,-0.81, 3.53, -27.45, 2.63, 1.64, 8.35, suppf,
2021-12-03,0.38, 1.75, -34.74, 2.66, 1.70, 8.85, suppf,
2021-12-04,1.38, 3.53, -33.19, 2.62, 1.64, 8.38, suppf,
2021-12-05,0.21, 6.03, -36.81, 2.66, 1.65, 8.51, suppf,
2021-12-06,1.40, 3.59, -28.92, 2.67, 1.68, 8.65, suppf,
2021-12-07,0.01, 3.01, -30.39, 2.77, 1.74, 8.82, suppf,
2021-12-08,0.01, 2.93, -34.09, 2.71, 1.71, 8.54, suppf,
2021-12-09,0.41, 1.85, -32.74, 2.72, 1.72, 8.77, suppf,
2021-12-10,2.13, 0.89, -24.85, 2.76, 1.74, 8.92, suppf,
2021-12-11,2.53, 0.48, -23.15, 2.64, 1.66, 8.51, suppf,
2021-12-12,4.78, 3.35, -25.06, 2.64, 1.65, 8.47, suppf,
2021-12-13,2.91, 2.55, -16.90, 2.61, 1.64, 8.36, suppf,
2021-12-14,3.16, 1.24, -8.89, 2.62, 1.64, 8.43, suppf,
2021-12-15,4.24, 1.69, -15.42, 3.95, 2.91, 11.00, suppf,
2021-12-16,1.51, 2.21, -11.44, 3.94, 2.93, 11.10, suppf,
2021-12-17,0.48, 3.89, -16.04, 4.12, 3.24, 11.61, suppf,
2021-12-18,-0.63, -0.13, -23.85, 4.05, 3.15, 11.42, suppf,
2021-12-19,1.13, 0.73, -24.47, 2.74, 1.66, 8.68, suppf,
2021-12-20,1.31, 3.18, -19.91, 2.74, 1.66, 8.70, suppf,
2021-12-21,3.67, -0.18, -30.62, 2.74, 1.65, 8.67, suppf,
2021-12-22,2.37, 0.53, -31.87, 2.76, 1.68, 8.80, suppf,
2021-12-23,3.55, -2.21, -29.21, 2.77, 1.67, 8.85, suppf,
2021-12-24,2.97, -1.55, -34.60, 2.73, 1.65, 8.62, suppf,
2021-12-25,4.03, 0.57, -36.28, 2.72, 1.65, 8.66, suppf,
2021-12-26,6.39, 1.09, -23.06, 2.77, 1.68, 8.83, suppf,
2021-12-27,4.69, 0.93, -32.41, 2.78, 1.71, 8.84, suppf,
2021-12-28,6.43, -0.30, -24.06, 2.65, 1.67, 8.63, suppf,
2021-12-29,3.96, 0.87, -19.04, 2.66, 1.68, 8.61, suppf,
2021-12-30,4.41, 0.58, -29.95, 2.61, 1.63, 8.33, suppf,
2021-12-31,4.48, 0.65, -22.51, 2.61, 1.63, 8.35, suppf,
2022-01-01,4.30, 1.74, -17.56, 2.63, 1.65, 8.45, suppf,
2022-01-02,4.45, 2.49, -38.85, 2.63, 1.65, 8.46, suppf,
2022-01-03,3.79, 1.93, -47.42, 2.61, 1.64, 8.39, suppf,
2022-01-04,4.88, 0.24, -45.92, 2.60, 1.64, 8.37, suppf,
2022-01-05,6.20, 0.75, -46.42, 2.61, 1.63, 8.38, suppf,
2022-01-06,6.29, 0.45, -40.04, 2.59, 1.64, 8.33, suppf,
2022-01-07,5.99, -0.75, -36.13, 2.63, 1.65, 8.45, suppf,
2022-01-08,5.79, 2.81, -29.84, 2.61, 1.64, 8.34, suppf,
2022-01-09,6.53, 2.65, -9.35, 2.86, 1.84, 9.37, suppf,
2022-01-10,4.02, 1.31, 11.72, 2.61, 1.65, 8.39, suppf,
2022-01-11,4.15, 1.23, 15.83, 2.62, 1.66, 8.46, suppf,
2022-01-12,5.91, 0.42, -2.68, 2.63, 1.66, 8.47, suppf,
2022-01-13,2.37, 2.23, 2.61, 2.67, 1.68, 8.62, suppf,
2022-01-14,5.10, 1.28, -1.07, 2.69, 1.68, 8.61, suppf,
2022-01-15,4.12, 3.62, 8.16, 2.65, 1.67, 8.42, suppf,